Location: Unnamed
(49.2205°N, 28.4120°E)
Time: 16:03:36
(UTC+03:00)

ISS - Pass Details

Date: 25 April 2026
Orbit: 414 x 424 km, 51.6° (Epoch: 18 May)

Event Time Altitude Azimuth Distance (km) Brightness Sun altitude
Exits shadow 04:11:58 35° 215° (SW) 699 -3.2 -15.2°
Maximum altitude 04:13:07 57° 153° (SSE) 499 -3.5 -15.1°
Drops below altitude 10° 04:16:27 10° 74° (ENE) 1,507 0.1 -14.7°
Sets 04:18:34 0° 71° (ENE) 2,376 1.4 -14.4°
